Location: DARK SKY Beskydy - Park tmavé oblohy, www.darkskybeskydy.cz
(49.4926°N, 18.5016°E)
Time: 09:52:38
(UTC+02:00)

Transit 4A - Pass Details

Date: 05 March 2024
Orbit: 871 x 971 km, 66.8° (Epoch: 24 April)

Event Time Altitude Azimuth Distance (km) Brightness Sun altitude
Exits shadow 01:09:08 18° 15° (NNE) 2,056 10.2 -43.9°
Drops below altitude 10° 01:10:51 10° 26° (NNE) 2,570 10.8 -43.8°
Sets 01:13:36 0° 36° (NE) 3,500 11.7 -43.6°
